Date,TemperatureHighF,TemperatureAvgF,TemperatureLowF,DewpointHighF,DewpointAvgF,DewpointLowF,HumidityHigh,HumidityAvg,HumidityLow,PressureMaxIn,PressureMinIn,WindSpeedMaxMPH,WindSpeedAvgMPH,GustSpeedMaxMPH,PrecipitationSumIn
2012-1-10,56.4,43.8,30.0,33.5,27.7,24.6,84,55,34,30.08,29.75,13,3,0,0.00
2012-1-11,38.0,33.5,27.8,26.6,24.8,22.3,82,70,63,29.75,29.68,3,1,0,0.00
2012-1-12,17.1,15.8,14.4,14.2,12.0,9.9,88,85,79,29.87,29.75,8,5,0,0.00
2012-1-13,20.2,15.0,9.0,10.1,7.9,3.7,83,73,63,30.15,30.09,10,3,0,0.00
2012-1-14,30.3,22.5,12.2,23.0,17.4,7.2,87,81,73,30.27,30.00,11,4,0,0.00
2012-1-15,46.9,35.1,22.0,31.8,25.9,18.5,87,70,53,30.28,29.92,17,9,0,0.00
2012-1-16,67.2,50.2,38.6,51.4,40.4,31.6,87,70,49,29.92,29.60,17,8,0,0.02
2012-1-17,39.1,26.3,14.7,35.4,20.8,8.8,92,79,68,30.40,29.61,14,5,0,0.15
2012-1-18,32.7,22.4,9.0,20.6,13.6,5.7,87,70,51,30.41,29.90,14,6,0,0.00
2012-1-19,33.1,19.6,10.1,22.1,9.9,1.9,77,66,56,30.20,29.87,15,8,0,0.00
2012-1-20,23.0,17.4,10.0,15.7,9.0,2.8,86,70,59,30.22,29.90,11,7,0,0.00
2012-1-21,27.9,21.4,15.8,25.1,17.1,12.7,90,83,73,30.27,29.96,8,5,0,0.00
2012-1-22,48.7,37.2,27.6,47.0,35.6,25.1,100,94,90,29.97,29.35,12,8,0,0.01
2012-1-23,49.4,35.1,31.4,46.5,29.2,24.9,92,79,72,30.07,29.35,17,8,0,0.01
2012-1-24,41.5,30.7,22.2,28.5,24.6,19.6,91,79,57,30.33,30.07,6,2,0,0.00
2012-1-25,37.6,32.5,27.7,31.8,29.2,24.4,93,88,78,30.29,29.99,6,3,0,0.00
2012-1-26,46.1,37.3,31.9,37.6,33.3,30.3,97,86,64,29.99,29.74,9,3,0,0.00
2012-1-27,39.0,32.8,25.2,31.8,28.8,22.3,96,86,63,30.06,29.83,9,2,0,0.01
2012-1-28,38.8,31.7,24.2,31.5,23.8,20.3,95,73,55,30.30,30.06,13,5,0,0.27
2012-1-29,41.1,33.7,28.4,23.9,19.2,15.0,66,56,36,30.28,30.13,12,4,0,0.01
2012-1-30,65.9,49.5,32.8,43.3,34.4,20.8,71,57,37,30.13,29.86,19,10,0,0.00
2012-1-31,62.5,54.4,44.3,52.8,45.9,36.5,83,73,64,30.00,29.79,19,9,0,0.00
2012-2-1,44.3,40.9,37.1,36.6,35.3,32.8,88,80,75,30.06,30.00,2,0,0,0.00
2012-2-2,61.0,55.1,47.9,37.6,35.2,33.2,62,48,38,30.29,30.24,7,4,0,0.00
2012-2-3,49.9,46.7,43.4,41.5,40.5,39.4,93,80,67,30.20,30.12,13,12,0,0.00
2012-2-6,34.7,33.5,32.4,32.9,30.6,29.6,96,89,86,30.22,30.20,4,2,0,0.00
2012-2-7,34.0,31.6,30.4,31.3,29.5,27.5,94,92,88,30.42,30.21,11,4,0,0.00
2012-2-8,33.3,30.1,24.2,28.8,25.8,20.1,93,84,69,30.49,30.41,10,2,0,0.01
2012-2-9,33.4,23.8,17.9,27.0,19.3,14.7,92,83,75,30.42,30.22,6,2,0,0.00
2012-2-15,42.4,40.2,38.7,40.4,38.9,37.7,97,95,92,29.99,29.91,8,1,0,0.13
2012-2-16,48.2,39.5,33.3,38.0,31.7,26.1,97,76,46,30.25,29.98,9,3,0,0.00
2012-2-17,55.8,42.7,31.6,37.1,31.4,26.3,84,65,44,30.22,30.06,14,5,0,0.00
2012-2-18,41.4,33.5,27.5,29.4,25.6,22.4,83,73,56,30.24,30.14,10,4,0,0.00
2012-2-21,-200.0,0.0,200.0,-99.9,-99.9,-99.9,0,0,100,0.00,40.00,0,-999,0,0.00
2012-2-22,48.8,37.6,41.8,33.3,12.7,-99.9,69,54,56,29.50,29.47,4,-112,4,0.00
2012-2-23,58.6,46.4,39.0,47.3,39.9,32.1,93,79,58,29.51,29.27,16,6,25,0.10
2012-2-24,39.7,35.2,29.7,33.5,27.4,20.9,92,74,52,30.15,29.50,17,7,23,0.05
2012-2-25,38.9,30.2,22.5,24.4,17.8,13.8,81,61,42,30.35,30.14,10,5,16,0.00
2012-2-26,62.2,46.9,30.8,34.2,27.9,18.0,68,49,32,30.17,29.94,24,11,32,0.00
2012-2-27,44.7,35.4,28.6,30.5,22.5,18.1,78,60,38,30.48,30.15,9,4,13,0.00
2012-2-28,59.4,44.5,32.1,55.0,34.6,23.9,92,69,45,30.43,29.51,16,7,24,0.10
2012-2-29,62.8,49.5,35.9,57.0,35.0,26.6,87,58,42,29.84,29.48,27,15,44,0.01
2012-3-1,58.2,42.0,26.8,35.3,30.6,23.4,89,66,40,29.91,29.55,11,5,18,0.00
2012-3-2,41.9,37.3,33.5,35.1,33.0,27.9,93,85,74,29.84,29.44,14,7,19,0.14
2012-3-3,40.4,33.6,27.0,27.9,23.1,20.4,78,66,50,29.95,29.83,12,5,20,0.00
2012-3-4,38.2,30.6,22.8,28.9,23.7,18.1,88,76,57,30.17,29.88,11,3,16,0.00
2012-3-5,48.0,36.1,22.1,27.9,24.0,19.1,92,64,41,30.41,30.07,13,6,19,0.01
2012-3-6,73.6,59.5,41.2,41.8,33.4,26.0,58,40,19,30.07,29.81,27,16,36,0.00
2012-3-7,68.8,62.7,43.0,55.3,48.6,40.1,90,61,48,29.94,29.79,23,15,29,0.34
2012-3-8,46.4,39.1,33.3,39.7,29.4,22.8,92,70,40,30.43,29.94,14,8,24,0.42
2012-3-9,49.7,39.2,32.8,26.9,21.4,11.5,70,51,27,30.60,30.43,10,4,14,0.00
2012-3-10,63.9,48.1,33.8,34.2,28.5,22.8,71,49,28,30.46,30.20,17,8,23,0.00
2012-3-11,59.1,49.4,37.9,52.1,40.4,27.2,95,73,47,30.21,29.87,13,8,22,0.35
2012-3-12,70.4,59.9,53.2,56.4,53.3,50.9,96,80,56,29.94,29.76,14,8,22,0.01
2012-3-13,78.2,60.6,40.6,57.3,49.7,39.5,98,72,37,30.08,29.94,10,3,14,0.01
2012-3-14,81.5,69.2,58.2,64.9,58.1,47.5,83,68,51,29.97,29.86,17,10,25,0.00
2012-3-15,79.0,69.6,61.6,64.8,60.6,54.8,86,74,59,30.02,29.91,14,8,20,0.00
2012-3-16,79.8,69.7,60.8,66.0,60.7,54.5,86,74,57,30.00,29.90,16,9,24,0.00
2012-3-17,79.1,66.7,59.8,64.5,59.3,54.4,93,78,60,29.98,29.87,19,9,26,0.00
2012-3-18,80.5,68.6,58.8,63.5,59.4,55.3,90,74,53,29.97,29.85,17,9,25,0.00
2012-3-19,81.6,71.0,62.3,64.5,61.2,56.5,88,72,49,29.88,29.68,22,9,29,0.02
2012-3-20,80.5,66.0,57.7,61.9,57.3,53.8,96,77,42,29.96,29.75,21,7,30,0.12
2012-3-21,76.5,67.0,57.6,62.1,56.8,52.5,95,72,45,29.98,29.87,11,3,15,0.01
2012-3-22,72.1,58.3,53.3,59.9,53.3,50.8,96,84,62,30.00,29.87,21,5,27,0.32
2012-3-23,63.3,55.7,50.3,55.6,52.0,48.7,96,88,71,29.93,29.77,9,3,12,0.33
2012-3-24,65.3,58.9,51.4,59.6,55.0,48.7,94,87,77,29.97,29.80,7,2,10,0.00
2012-3-25,74.3,63.0,52.6,59.9,55.3,51.5,97,78,52,30.08,29.97,5,1,9,0.01
2012-3-26,67.3,58.4,51.8,54.2,48.9,42.1,95,72,54,30.18,30.03,13,6,20,0.00
2012-3-27,80.5,66.5,52.2,61.2,52.8,42.0,74,62,42,30.03,29.82,18,10,28,0.00
2012-3-28,76.5,66.8,55.8,60.1,47.8,39.0,80,53,30,30.02,29.87,8,3,12,0.00
2012-3-29,59.1,54.7,50.6,55.0,49.0,42.1,94,82,56,30.02,29.75,11,5,15,0.41
2012-3-30,69.0,61.4,52.3,60.0,55.2,49.8,92,81,68,29.87,29.65,9,5,14,0.00
2012-3-31,75.0,59.8,46.4,63.1,53.9,44.6,94,82,65,29.89,29.69,11,5,14,0.00
2012-4-1,84.6,71.7,58.0,67.3,58.9,54.8,91,67,40,29.69,29.51,13,5,18,0.00
2012-4-2,87.9,73.6,58.1,66.7,58.8,54.8,89,62,35,29.72,29.53,11,4,16,0.00
2012-4-3,79.1,70.2,61.3,63.2,59.3,55.6,85,69,52,29.81,29.71,9,5,13,0.00
2012-4-4,62.2,55.7,48.7,57.1,48.1,40.7,85,76,59,29.86,29.75,18,10,22,0.00
2012-4-5,60.2,50.3,43.8,46.7,41.3,36.3,93,72,49,30.09,29.79,16,8,20,0.51
2012-4-6,59.1,47.5,35.0,41.5,36.4,30.2,84,66,44,30.26,30.09,9,4,11,0.00
2012-4-7,59.2,50.6,40.9,50.2,43.2,36.3,96,77,57,30.29,30.11,10,4,15,0.01
2012-4-8,65.5,53.7,37.9,46.3,35.8,27.0,93,56,26,30.37,30.12,11,4,13,0.00
2012-4-9,68.8,58.2,46.0,37.5,32.0,23.2,62,39,22,30.17,30.04,10,4,16,0.00
2012-4-10,58.6,48.6,36.3,29.0,25.3,22.4,69,41,27,30.23,30.10,12,5,20,0.00
2012-4-11,55.2,44.1,31.6,30.3,25.8,22.6,76,50,34,30.35,30.19,8,3,13,0.00
2012-4-12,64.2,50.0,31.9,37.6,31.8,26.2,90,54,26,30.27,30.06,12,4,20,0.00
2012-4-13,55.9,50.9,46.5,49.5,45.4,35.3,93,82,46,30.08,29.92,13,8,19,0.59
2012-4-14,71.8,63.3,52.9,64.8,59.5,49.4,96,88,73,29.93,29.62,14,7,22,0.22
2012-4-15,70.9,67.5,60.2,65.1,61.1,54.0,95,80,73,29.69,29.48,17,13,27,0.74
2012-4-16,63.1,56.0,48.5,54.2,44.3,41.4,82,66,48,30.21,29.51,20,10,32,0.00
2012-4-17,68.3,55.3,40.6,48.9,44.3,38.4,95,69,41,30.35,30.19,11,2,16,0.00
2012-4-18,74.0,62.3,50.8,54.5,49.7,45.2,86,65,44,30.19,29.92,14,8,21,0.00
2012-4-19,76.0,66.1,54.9,58.7,50.9,47.2,92,59,38,29.94,29.64,14,9,23,0.07
2012-4-20,60.9,48.6,43.9,59.2,44.0,40.0,94,84,73,30.04,29.66,12,7,18,0.22
2012-4-21,56.0,47.6,36.2,44.1,40.0,34.6,100,76,55,30.08,29.93,11,2,15,0.13
2012-4-22,54.9,47.9,41.2,44.7,41.2,35.8,96,79,54,30.17,29.88,12,4,18,0.01
2012-4-23,61.4,50.3,37.7,44.7,38.8,32.9,88,66,44,30.16,29.93,11,4,18,0.00
2012-4-24,78.7,61.9,45.4,57.4,48.2,38.9,78,62,43,29.93,29.57,13,7,20,0.00
2012-4-25,85.3,71.5,57.4,65.1,59.9,53.5,89,69,47,29.59,29.48,10,5,15,0.02
2012-4-26,72.9,66.1,56.0,61.9,52.8,40.9,83,63,44,30.01,29.58,11,6,16,0.00
2012-4-27,58.5,52.0,45.4,42.7,32.7,21.8,71,49,32,30.14,29.80,20,8,25,0.05
2012-4-28,68.4,60.5,51.7,58.3,52.3,42.7,85,75,67,30.06,29.76,12,6,23,0.00
2012-4-29,56.8,50.7,46.4,56.0,48.7,44.6,97,93,84,30.10,29.93,12,6,19,0.85
2012-4-30,61.9,57.8,54.5,58.1,55.7,53.8,98,93,84,29.99,29.89,6,2,16,0.10
2012-5-1,77.5,64.4,54.5,68.7,61.0,52.9,98,89,70,29.94,29.72,12,4,16,0.52
2012-5-2,84.6,73.2,63.4,71.9,65.9,60.6,92,79,56,29.91,29.70,16,8,21,0.00
2012-5-3,82.1,74.4,67.8,72.2,68.3,64.5,90,81,70,29.93,29.77,19,9,26,0.00
2012-5-4,79.2,70.6,63.3,69.4,65.5,61.2,94,84,66,29.98,29.80,16,6,21,0.06
2012-5-5,86.6,76.6,65.9,75.1,70.4,64.4,96,82,60,29.86,29.79,8,3,12,0.00
2012-5-6,86.5,76.1,68.5,73.8,69.1,61.3,96,80,57,29.84,29.70,12,3,15,0.00
2012-5-7,72.8,65.5,57.5,63.6,58.4,50.9,92,79,53,29.95,29.75,9,5,16,0.00
2012-5-8,72.3,63.1,54.7,52.1,45.8,38.7,82,56,30,29.99,29.92,9,3,20,0.00
2012-5-9,67.7,58.3,46.6,51.0,46.9,43.1,89,67,47,30.01,29.92,8,3,13,0.00
2012-5-10,73.3,61.6,45.4,52.3,47.9,43.7,96,64,38,30.00,29.91,7,2,11,0.00
2012-5-11,76.6,65.8,53.9,57.5,53.3,48.3,82,65,45,30.10,29.97,12,6,19,0.00
2012-5-12,66.1,62.4,58.5,58.9,56.4,55.0,93,81,75,30.20,30.10,8,4,12,0.00
2012-5-13,72.3,63.2,53.0,56.5,49.6,42.6,95,65,37,30.23,30.11,10,5,15,0.00
2012-5-14,77.8,65.1,49.0,52.1,44.9,33.7,92,54,22,30.14,30.01,6,1,15,0.00
2012-5-15,82.6,69.1,50.5,55.6,50.9,42.6,81,54,36,30.03,29.88,12,6,20,0.00
2012-5-16,74.0,65.8,55.6,53.9,47.9,42.9,67,54,34,30.07,29.92,9,4,14,0.00
2012-5-17,78.5,65.0,48.9,46.3,42.3,34.3,72,47,25,30.09,29.94,7,2,12,0.00
2012-5-18,86.6,71.9,55.5,58.1,51.6,45.3,71,51,29,29.98,29.84,11,5,18,0.00
2012-5-19,87.6,76.4,63.4,64.1,59.8,54.1,74,58,41,29.95,29.86,15,6,23,0.00
2012-5-20,82.5,74.3,62.2,65.6,61.0,50.7,72,64,52,30.10,29.90,12,6,16,0.00
2012-5-21,73.1,62.1,50.6,50.7,44.1,38.9,82,55,31,30.20,30.08,13,5,20,0.00
2012-5-22,79.0,65.2,47.0,51.6,46.3,42.2,88,55,29,30.09,29.84,7,2,12,0.00
2012-5-23,84.9,71.6,57.5,55.6,52.0,48.7,73,52,33,29.84,29.60,13,8,21,0.00
2012-5-24,90.5,77.9,66.3,67.6,58.2,48.8,81,52,32,29.71,29.47,20,10,28,0.00
2012-5-25,84.9,74.0,64.8,66.5,61.9,57.1,90,68,44,29.98,29.71,9,5,15,0.00
2012-5-26,92.1,81.2,71.4,73.9,70.7,66.3,87,72,51,29.98,29.86,11,5,16,0.00
2012-5-27,91.6,81.5,72.0,72.8,65.1,58.5,88,60,34,29.92,29.73,13,8,20,0.00
2012-5-28,89.5,81.1,70.8,71.1,65.3,53.9,86,59,46,29.79,29.68,18,8,24,0.22
2012-5-29,85.1,74.2,60.9,58.4,52.4,40.7,83,49,23,29.90,29.79,9,3,14,0.00
2012-5-30,77.7,66.8,56.0,51.6,48.2,44.9,73,52,36,29.97,29.82,7,4,11,0.00
2012-5-31,63.1,56.2,50.8,51.9,48.9,45.8,94,78,54,29.95,29.74,12,6,16,0.18
2012-6-1,67.8,57.0,46.7,50.5,46.0,38.8,96,70,38,29.97,29.87,8,3,15,0.01
2012-6-2,78.8,65.1,52.9,57.2,51.6,47.3,90,64,36,29.87,29.76,12,5,22,0.02
2012-6-3,82.4,70.1,53.8,65.3,56.9,49.5,88,65,43,29.88,29.76,8,2,11,0.00
2012-6-4,86.1,72.7,61.4,70.9,64.8,59.3,95,77,57,29.88,29.74,13,5,19,0.00
2012-6-5,80.8,70.5,57.9,60.7,56.2,51.4,94,64,41,29.96,29.86,10,3,14,0.00
2012-6-6,79.7,69.2,56.2,55.4,52.3,49.6,82,57,36,30.05,29.93,7,3,12,0.00
2012-6-7,81.6,69.4,52.9,55.4,51.2,47.8,89,56,33,30.12,30.02,6,1,10,0.00
2012-6-8,86.0,72.5,55.8,57.2,52.0,48.6,86,52,29,30.08,29.89,9,3,13,0.00
2012-6-9,89.8,77.0,61.4,62.4,56.4,50.3,72,51,30,29.92,29.74,12,5,22,0.00
2012-6-10,89.2,79.0,69.4,68.7,65.1,60.3,77,63,47,29.84,29.73,13,8,20,0.00
2012-6-11,81.2,73.8,67.4,69.7,66.1,58.6,95,78,63,29.96,29.69,9,3,12,0.57
2012-6-12,78.0,68.7,58.9,59.1,49.8,37.8,82,55,24,30.13,29.96,8,3,14,0.00
2012-6-13,78.4,67.0,54.5,56.6,52.9,46.7,86,62,36,30.14,29.99,8,2,13,0.00
2012-6-14,87.5,73.6,56.8,61.0,55.8,51.9,87,57,32,30.02,29.84,11,4,22,0.00
2012-6-15,91.8,76.6,66.5,69.7,63.2,57.1,95,65,42,29.96,29.81,16,6,20,1.98
2012-6-16,89.6,76.4,69.1,74.2,69.4,66.7,96,81,52,29.99,29.82,12,6,20,0.72
2012-6-17,85.2,76.4,66.7,73.7,69.2,63.1,97,80,61,29.95,29.71,8,4,12,0.00
2012-6-18,90.0,81.8,74.4,73.5,69.2,64.9,81,67,48,29.75,29.65,17,10,28,0.00
2012-6-19,89.2,81.5,74.1,74.0,69.7,64.7,82,68,56,29.87,29.75,14,9,22,0.00
2012-6-20,90.0,82.0,74.7,72.5,69.3,66.7,77,66,52,29.94,29.81,14,8,20,0.00
2012-6-21,83.0,75.8,68.5,68.4,64.2,58.5,91,69,46,30.00,29.87,8,3,12,0.00
2012-6-22,82.7,72.9,61.8,62.9,59.2,53.9,88,64,39,30.04,29.94,6,2,12,0.00
2012-6-23,83.3,70.9,61.6,68.5,62.6,56.7,92,76,54,30.01,29.87,8,2,11,0.18
2012-6-24,94.0,79.4,66.1,75.9,68.1,59.1,91,70,49,29.93,29.81,12,3,16,0.00
2012-6-25,84.3,76.2,63.0,72.3,65.1,54.3,92,70,49,29.95,29.84,11,6,18,0.00
2012-6-26,86.0,70.8,53.5,59.9,55.3,49.1,87,61,34,30.00,29.83,6,2,11,0.00
2012-6-27,97.2,80.8,64.0,70.1,60.5,51.4,75,52,37,29.91,29.75,11,6,15,0.00
2012-6-28,101.3,89.1,76.8,74.5,69.6,65.2,71,54,37,29.85,29.78,11,7,20,0.00
2012-6-29,100.5,87.3,72.0,70.2,64.0,54.1,78,49,22,29.86,29.71,11,4,18,0.00
2012-6-30,96.1,84.4,69.9,79.8,69.9,62.8,88,64,40,29.82,29.74,10,3,16,0.00
2012-7-1,92.4,81.1,72.3,75.1,70.7,66.9,91,73,45,29.96,29.80,8,2,12,0.04
2012-7-2,97.5,83.0,70.4,73.7,69.1,64.5,92,66,38,29.95,29.84,15,3,24,0.62
2012-7-3,94.6,82.9,70.2,75.4,71.7,67.7,93,71,47,29.92,29.78,8,3,11,0.00
2012-7-4,98.0,86.4,75.4,72.5,68.0,58.3,80,57,29,29.90,29.81,9,4,15,0.00
2012-7-5,99.4,86.8,74.3,75.7,68.7,64.3,79,58,33,29.95,29.85,8,2,11,0.00
2012-7-6,102.3,89.6,74.2,76.7,70.3,62.0,86,56,29,29.95,29.86,5,1,9,0.00
2012-7-7,103.3,89.6,75.0,76.6,69.5,63.2,85,55,29,29.95,29.85,10,2,12,0.00
2012-7-8,89.1,81.0,73.9,72.1,68.4,61.9,86,66,54,30.00,29.90,13,5,18,0.00
2012-7-9,90.3,80.2,68.4,64.6,61.1,56.7,83,55,34,30.03,29.94,10,4,18,0.00
2012-7-10,91.1,79.1,68.0,68.5,64.7,61.0,83,63,41,30.02,29.94,9,3,12,0.00
2012-7-11,88.1,76.3,64.4,68.3,62.5,57.8,84,64,43,30.08,29.98,7,2,9,0.51
2012-7-12,93.8,80.6,67.0,67.9,63.0,56.2,80,58,29,30.02,29.93,5,1,9,0.00
2012-7-13,91.9,75.6,67.2,71.5,67.0,62.2,95,77,45,30.04,29.93,8,2,12,0.39
2012-7-14,89.7,77.1,65.2,75.3,68.7,64.1,97,78,46,30.05,29.93,3,1,6,0.00
2012-7-15,93.3,81.6,71.0,73.1,69.9,67.3,91,70,44,30.05,29.93,6,2,10,0.00
2012-7-16,94.5,83.8,72.7,75.4,71.4,67.2,88,68,47,29.97,29.80,8,2,12,0.00
2012-7-17,96.5,86.1,75.9,72.5,70.3,67.5,83,61,40,29.87,29.77,9,4,16,0.00
2012-7-18,100.9,88.5,76.7,73.2,69.2,65.1,78,55,33,29.89,29.77,9,4,15,0.00
2012-7-19,98.3,88.1,77.3,74.0,68.5,63.3,73,54,33,29.94,29.78,10,5,14,0.00
2012-7-20,83.3,75.0,68.3,68.2,66.5,64.3,91,76,59,30.06,29.93,9,4,14,0.00
2012-7-21,90.8,78.4,64.8,69.0,65.2,51.6,95,67,28,30.09,29.98,5,1,9,0.00
2012-7-22,97.8,84.0,70.2,67.5,63.8,60.1,77,53,29,30.07,29.93,9,2,14,0.00
2012-7-23,103.3,89.2,75.1,71.3,66.3,61.6,70,49,28,30.00,29.88,11,4,14,0.00
2012-7-24,102.1,90.6,77.8,71.9,68.3,65.7,68,50,32,29.93,29.77,9,4,14,0.00
2012-7-25,101.8,90.1,74.8,70.9,67.9,65.1,80,51,32,29.80,29.59,13,6,26,0.00
2012-7-26,89.4,79.3,70.6,75.4,71.2,65.5,94,78,49,29.84,29.61,9,4,14,0.64
2012-7-27,88.8,78.3,69.0,68.9,64.0,59.5,94,65,39,30.00,29.81,8,4,14,0.00
2012-7-28,87.0,75.8,63.5,66.6,63.2,60.3,90,67,43,30.12,30.00,9,2,16,0.00
2012-7-29,90.5,76.6,67.1,73.8,68.8,62.4,95,78,55,30.09,29.85,10,3,16,0.30
2012-7-30,81.2,75.5,69.7,74.3,71.3,67.9,96,87,76,29.91,29.82,6,1,8,0.00
2012-7-31,98.4,82.2,66.6,75.6,69.5,63.7,97,70,37,29.94,29.83,7,3,11,0.01
2012-8-1,97.6,82.2,68.3,74.0,65.1,56.3,89,60,27,29.91,29.77,5,2,9,0.00
2012-8-2,91.1,79.9,67.1,74.1,68.0,60.1,91,68,52,29.82,29.71,8,2,11,0.00
2012-8-3,95.4,81.1,71.3,75.6,72.4,68.8,97,78,44,29.82,29.74,7,2,13,0.00
2012-8-4,94.0,83.1,75.7,76.0,73.2,67.6,94,73,53,29.95,29.74,9,3,14,0.00
2012-8-5,87.1,77.3,66.2,68.4,59.9,52.5,91,59,32,30.13,29.95,8,3,14,0.00
2012-8-6,92.6,76.7,60.0,62.7,56.5,50.0,88,55,25,30.14,29.96,6,2,9,0.00
2012-8-7,101.0,83.3,62.8,64.9,58.0,51.0,85,48,21,29.98,29.86,7,2,11,0.00
2012-8-8,81.8,75.2,67.2,72.0,65.4,59.2,91,73,48,29.99,29.83,9,2,18,0.07
2012-8-9,89.0,75.8,64.9,69.4,64.9,61.3,95,71,44,29.90,29.80,11,4,19,0.00
2012-8-10,78.3,69.0,63.2,61.7,57.4,53.8,91,68,44,30.00,29.87,10,4,13,0.00
2012-8-11,84.8,70.2,56.3,56.8,51.5,45.2,88,56,27,30.05,29.93,7,2,11,0.00
2012-8-12,82.1,68.5,59.5,65.2,59.0,49.6,89,72,51,29.99,29.79,7,2,10,0.10
2012-8-13,70.4,65.4,60.1,63.8,61.3,58.4,95,87,76,29.93,29.79,9,4,14,0.01
2012-8-23,95.3,84.1,74.2,55.7,52.6,50.3,52,35,23,29.92,29.89,9,2,16,0.00
2012-8-24,93.3,80.7,68.3,57.6,54.6,51.4,63,43,25,29.97,29.86,12,4,19,0.00
2012-8-25,90.4,76.3,65.8,71.3,63.2,55.8,92,67,36,29.94,29.84,17,5,21,0.16
2012-8-26,81.8,74.2,70.9,75.2,71.3,68.1,96,91,74,29.96,29.88,9,4,13,0.24
2012-8-27,89.2,76.8,67.6,71.0,65.8,59.0,96,72,38,30.11,29.96,10,4,14,0.01
2012-8-28,93.5,78.0,63.1,67.1,61.6,57.6,94,62,31,30.11,29.95,7,1,11,0.00
2012-8-29,95.0,79.0,65.0,63.9,61.0,57.2,87,58,30,30.02,29.88,9,3,12,0.00
2012-8-30,98.2,80.8,66.3,65.3,60.7,55.5,85,55,26,29.98,29.86,9,3,12,0.00
2012-8-31,76.3,73.1,68.2,72.7,68.2,60.1,96,85,59,30.00,29.83,15,5,19,1.34
2012-9-1,77.6,73.9,71.9,74.1,72.3,71.0,97,95,87,29.83,29.74,13,6,19,1.17
2012-9-2,83.1,73.8,67.1,74.1,70.6,66.2,98,90,72,29.86,29.77,8,4,12,0.05
2012-9-3,90.3,78.6,69.0,74.6,71.3,68.0,97,80,55,29.89,29.80,6,2,11,0.00
2012-9-4,93.4,80.7,73.1,72.8,70.8,66.8,94,74,43,29.87,29.75,7,3,9,0.01
2012-9-5,87.6,76.1,66.6,73.8,68.9,62.8,92,79,55,29.87,29.73,20,5,27,0.00
2012-9-6,88.3,75.7,65.8,70.3,63.7,55.3,93,70,36,29.95,29.81,7,2,11,0.00
2012-9-7,84.8,70.6,59.5,70.3,64.4,56.7,93,82,58,29.95,29.72,14,5,19,0.44
2012-9-8,74.9,63.1,52.0,57.2,51.1,48.0,93,67,42,30.04,29.89,10,4,15,0.00
2012-9-9,73.3,63.7,53.5,53.4,51.4,48.8,86,66,46,30.13,29.89,10,4,18,0.00
2012-9-10,79.2,64.3,49.6,55.4,51.8,47.8,95,68,37,30.19,30.03,9,3,13,0.00
2012-9-11,86.5,70.3,55.9,61.9,57.1,52.3,89,66,37,30.09,29.98,11,6,14,0.00
2012-9-12,86.3,73.2,61.6,64.8,59.5,56.3,86,64,39,30.10,30.00,11,6,15,0.00
2012-9-13,70.0,59.8,53.7,60.5,53.9,49.0,96,81,64,30.34,30.07,12,6,15,0.21
2012-9-14,69.4,58.6,50.0,55.2,51.1,46.4,97,79,47,30.38,30.28,9,3,12,0.02
2012-9-15,74.7,60.6,48.3,56.2,50.0,45.5,94,71,42,30.30,30.13,7,1,10,0.00
2012-9-16,77.5,62.2,48.1,63.3,55.4,46.1,95,80,58,30.12,29.94,6,1,9,0.00
2012-9-17,78.8,63.2,51.9,66.5,58.9,49.3,98,87,56,29.94,29.75,13,3,23,0.08
2012-9-18,65.3,54.2,45.0,49.2,43.6,37.3,94,71,37,30.06,29.92,8,3,15,0.00
2012-9-19,77.7,61.9,45.5,53.8,46.7,39.8,83,60,37,30.05,29.83,17,8,26,0.00
2012-9-20,74.9,63.0,53.2,53.5,42.4,30.3,83,51,22,29.97,29.87,9,3,16,0.00
2012-9-21,81.3,64.7,52.3,59.1,49.1,41.8,85,59,29,29.98,29.66,14,5,20,0.00
2012-9-22,63.0,54.6,47.0,48.1,37.8,26.4,92,57,33,30.24,29.86,11,5,18,0.00
2012-9-23,66.4,52.3,37.5,42.7,35.9,30.4,92,59,27,30.33,30.22,7,2,12,0.00
2012-9-24,73.9,56.8,38.0,51.0,42.2,34.8,92,62,32,30.24,29.87,12,4,19,0.00
2012-9-25,78.9,66.7,57.1,68.3,61.0,50.8,96,83,63,29.87,29.75,10,4,14,0.62
2012-9-26,68.7,65.3,62.1,65.5,63.4,58.1,96,94,86,30.07,29.83,9,2,13,0.88
2012-9-27,70.3,61.2,53.4,60.5,54.9,48.7,94,80,61,30.18,30.06,10,4,14,0.00
2012-9-28,69.6,59.0,49.0,52.3,47.3,44.6,89,67,41,30.19,30.09,9,2,15,0.00
2012-9-29,75.8,59.7,44.6,53.4,47.2,41.9,92,66,36,30.15,29.97,5,1,7,0.00
2012-9-30,75.7,63.5,53.3,59.8,50.1,45.9,84,64,36,29.97,29.83,6,2,9,0.00
2012-10-1,69.2,58.9,51.1,52.6,48.7,42.1,89,71,38,29.85,29.77,11,3,13,0.00
2012-10-2,73.0,60.1,47.0,50.6,46.3,38.7,93,64,31,29.88,29.80,9,2,12,0.00
2012-10-3,76.3,61.4,51.9,56.7,52.3,46.5,92,74,45,29.99,29.85,11,3,16,0.00
2012-10-4,69.5,56.7,46.8,58.4,50.9,43.1,94,82,57,30.24,29.99,12,6,19,0.19
2012-10-5,47.8,44.0,36.1,46.2,38.8,33.2,94,82,64,30.25,30.17,9,3,14,0.32
2012-10-6,45.1,40.4,35.4,36.3,32.2,29.6,91,73,57,30.29,30.21,9,3,13,0.00
2012-10-7,53.9,42.6,32.5,34.4,30.5,26.0,88,65,36,30.29,30.15,7,2,11,0.00
2012-10-8,60.8,47.3,35.1,37.3,34.2,30.3,84,63,39,30.16,29.98,15,7,23,0.00
2012-10-9,67.1,51.4,43.7,47.5,41.4,36.8,88,70,48,30.05,29.85,14,9,21,0.02
2012-10-10,58.6,45.7,32.9,40.1,33.3,30.1,92,65,34,30.25,30.04,8,3,13,0.00
2012-10-11,69.1,53.4,39.2,50.8,41.5,32.9,82,65,44,30.21,30.05,11,6,15,0.00
2012-10-12,61.4,52.8,44.8,47.6,40.8,35.3,77,64,51,30.37,30.16,12,6,16,0.00
2012-10-13,71.9,62.3,54.0,66.1,59.4,47.4,97,90,78,30.15,29.68,23,8,31,1.36
2012-10-14,67.8,60.7,50.7,63.7,56.0,44.8,96,85,66,29.90,29.53,17,7,24,0.31
2012-10-15,70.0,55.2,44.1,48.0,44.3,40.8,89,69,40,30.00,29.88,5,2,8,0.00
2012-10-16,80.7,64.5,48.8,54.3,48.5,44.2,86,60,33,29.88,29.49,21,8,32,0.00
2012-10-17,64.5,58.7,50.0,59.0,51.4,43.3,95,78,53,29.52,29.34,13,8,19,0.76
2012-10-18,54.8,48.7,44.5,43.9,38.0,32.0,92,68,45,29.54,29.47,21,12,28,0.06
2012-10-19,51.7,47.4,44.0,47.8,43.9,41.0,92,88,80,29.77,29.48,12,7,23,0.05
2012-10-20,62.4,51.4,46.7,49.4,45.5,43.3,91,81,60,29.89,29.77,6,2,16,0.00
2012-10-21,80.1,62.6,45.0,65.2,54.1,42.8,93,75,56,29.89,29.80,10,3,13,0.00
2012-10-22,80.3,71.5,65.2,70.0,66.1,61.5,97,83,69,29.85,29.77,13,7,20,0.96
2012-10-23,74.5,69.2,64.6,66.7,64.8,62.5,94,86,74,29.86,29.75,14,6,21,0.29
2012-10-24,81.7,72.9,63.8,68.1,63.9,59.9,88,74,61,29.86,29.72,14,8,23,0.00
2012-10-25,73.8,58.0,40.4,65.0,51.9,32.5,92,80,71,30.21,29.66,17,10,24,0.31
2012-10-26,46.7,40.3,33.3,33.1,30.3,28.3,83,68,52,30.40,30.21,12,6,20,0.00
2012-10-27,44.5,37.0,28.9,31.0,28.5,25.6,89,72,54,30.41,30.27,10,3,13,0.00
2012-10-28,48.7,39.0,29.9,35.0,29.4,24.5,86,70,46,30.35,30.27,10,2,13,0.00
2012-10-29,49.6,40.6,30.1,35.2,30.9,26.7,88,70,47,30.36,30.16,5,1,8,0.00
2012-10-30,55.3,43.4,32.9,33.2,30.6,26.1,81,62,39,30.17,29.92,10,3,16,0.00
2012-10-31,54.6,42.7,32.6,31.4,25.6,18.0,82,55,24,30.01,29.95,8,3,13,0.00
2012-11-1,65.1,50.4,38.1,44.2,34.8,22.6,70,56,43,29.99,29.85,8,3,11,0.00
2012-11-2,53.0,43.8,34.1,35.8,33.7,30.1,86,68,48,30.09,29.94,9,4,13,0.00
2012-11-3,51.9,44.4,36.2,40.2,36.9,32.7,87,75,58,30.20,30.00,11,6,15,0.03
2012-11-4,46.7,39.3,30.0,38.5,34.8,28.2,96,85,69,30.27,30.13,5,1,8,0.00
2012-11-5,41.6,40.1,39.3,39.2,38.4,37.8,95,94,88,30.13,30.05,10,6,15,0.38
2012-11-6,48.6,43.9,39.6,44.0,40.5,37.0,96,88,70,30.10,29.89,11,4,18,0.02
2012-11-7,47.0,43.1,35.2,38.2,36.2,32.8,91,77,65,30.17,29.95,11,3,16,0.01
2012-11-8,58.1,45.1,30.3,41.3,36.8,28.3,94,74,53,30.18,29.99,11,5,16,0.01
2012-11-9,68.4,57.9,46.3,56.4,48.4,39.6,81,71,59,30.00,29.82,13,8,20,0.00
2012-11-10,75.7,65.4,57.4,57.0,52.4,48.1,80,64,45,29.86,29.75,20,12,27,0.00
2012-11-11,67.2,52.5,30.9,59.1,46.7,22.4,93,81,69,30.13,29.66,19,9,30,1.13
2012-11-12,41.9,33.0,25.5,25.5,22.8,20.0,83,67,47,30.44,30.12,14,4,22,0.00
2012-11-13,50.1,37.0,23.9,29.2,25.9,20.6,89,66,42,30.52,30.41,7,3,10,0.00
2012-11-14,55.2,42.0,33.8,34.5,29.6,26.5,80,62,42,30.46,30.33,8,4,11,0.00
2012-11-15,57.1,42.7,32.1,35.0,31.1,26.9,85,66,36,30.37,30.30,7,2,9,0.00
2012-11-16,58.2,43.9,33.4,42.5,36.0,29.4,90,75,49,30.45,30.37,5,1,6,0.00
2012-11-17,59.0,44.7,33.1,36.2,31.8,28.1,85,63,36,30.48,30.35,9,3,12,0.00
2012-11-18,63.2,48.6,35.1,35.9,33.1,30.3,83,58,32,30.36,30.23,9,5,13,0.00
2012-11-19,55.7,48.4,43.5,49.6,42.9,34.1,95,82,60,30.23,30.06,11,6,15,0.09
2012-11-20,54.9,46.2,41.3,50.5,44.2,40.1,97,93,84,30.22,30.04,6,3,8,0.02
2012-11-21,66.2,47.6,32.9,52.0,41.3,32.1,98,81,51,30.25,30.05,9,4,12,0.01
2012-11-22,70.3,56.0,43.7,54.1,44.9,35.6,78,67,52,30.13,29.80,19,10,24,0.00
2012-11-23,43.7,34.5,25.1,35.8,23.4,17.1,76,64,51,30.38,30.13,15,5,27,0.00
2012-11-24,36.4,28.1,19.6,25.2,19.7,14.8,83,71,54,30.38,29.96,8,4,13,0.00
2012-11-25,47.9,40.7,32.5,32.6,29.3,24.5,80,64,51,30.09,29.89,9,4,12,0.00
2012-11-26,39.8,31.0,22.1,28.5,23.8,14.4,87,75,60,30.45,30.09,13,5,18,0.00
2012-11-27,36.9,26.0,15.8,20.7,16.0,11.0,84,67,45,30.49,30.30,8,3,12,0.00
2012-11-28,47.7,35.6,25.0,31.2,25.8,20.0,85,68,51,30.45,30.25,7,3,10,0.00
2012-11-29,58.1,44.1,31.0,40.5,34.2,25.8,83,69,50,30.25,30.01,13,6,16,0.00
2012-11-30,61.1,49.2,40.2,42.5,37.5,32.8,84,65,48,30.06,30.01,12,5,19,0.00
2012-12-1,64.0,54.8,38.1,57.4,50.0,35.1,95,84,78,30.05,29.84,11,6,18,0.00
2012-12-2,63.8,54.6,48.1,57.4,52.6,47.3,97,93,79,30.00,29.84,8,3,13,0.00
2012-12-3,74.1,62.8,48.1,62.3,56.0,46.0,98,80,60,29.96,29.72,23,10,31,0.14
2012-12-4,62.2,50.5,42.3,45.7,34.9,28.0,77,57,31,30.29,29.95,7,2,12,0.00
2012-12-5,51.5,41.2,32.7,37.6,33.0,28.1,86,73,57,30.38,30.10,7,2,11,0.00
2012-12-6,53.2,45.1,38.2,44.1,39.4,34.1,95,81,67,30.10,29.90,9,4,11,0.05
2012-12-7,44.7,43.2,40.6,43.4,42.0,39.8,97,95,93,29.93,29.83,8,4,11,0.00
2012-12-8,40.6,39.0,37.5,39.7,36.7,34.6,97,91,83,30.03,29.86,10,5,13,0.02
2012-12-9,44.0,39.0,25.9,42.0,36.5,20.6,97,91,78,29.95,29.80,10,4,18,0.04
2012-12-10,33.2,25.4,20.7,23.6,19.4,16.6,86,78,67,30.07,29.93,8,4,15,0.00
2012-12-11,41.2,28.4,18.8,26.1,20.5,15.4,87,73,52,30.19,30.03,10,5,13,0.00
2012-12-12,50.4,35.8,25.4,28.3,22.8,19.8,83,61,33,30.28,30.19,13,6,20,0.00
2012-12-13,54.9,41.2,31.6,29.2,25.4,21.5,70,54,36,30.24,30.10,14,7,20,0.00
2012-12-14,53.7,44.4,34.4,38.4,30.3,25.8,83,59,41,30.16,29.88,13,7,23,0.05
2012-12-15,54.2,48.8,41.9,47.7,44.5,37.9,95,85,75,29.88,29.53,16,10,23,0.57
2012-12-16,48.9,41.2,38.1,44.9,37.2,34.4,88,86,81,29.78,29.65,10,4,15,0.00
2012-12-17,39.9,35.2,29.7,35.0,31.7,27.8,93,87,74,29.77,29.69,7,2,10,0.00
2012-12-18,55.9,39.5,28.7,40.7,33.3,26.9,95,80,50,29.91,29.59,20,8,26,0.00
2012-12-19,40.7,35.0,28.9,39.6,33.0,26.8,96,92,85,30.00,29.50,13,6,18,0.09
2012-12-20,41.7,31.6,21.8,40.9,29.9,18.0,97,93,85,30.01,29.20,19,10,33,0.14
2012-12-21,33.4,23.9,18.0,21.2,16.6,12.9,85,74,56,30.33,30.01,9,4,18,0.02
2012-12-22,39.8,26.4,12.0,28.0,20.1,9.5,91,78,59,30.31,29.94,10,3,13,0.03
2012-12-23,33.1,27.2,21.1,26.8,23.0,18.4,92,84,75,30.03,29.92,9,4,11,0.00
2012-12-24,24.9,22.1,19.6,23.1,18.7,14.6,93,87,77,30.19,29.89,11,5,19,0.00
2012-12-25,25.1,21.6,18.8,19.2,17.1,14.0,87,83,76,30.37,30.18,12,8,18,0.00
2012-12-26,25.7,22.2,18.2,20.5,17.6,13.9,92,82,77,30.23,30.13,10,7,19,0.00
2012-12-27,31.2,24.3,15.2,24.8,20.3,13.0,93,85,72,30.25,30.05,8,3,12,0.00
2012-12-28,33.4,30.2,27.6,28.9,26.8,24.2,90,87,82,30.05,29.92,6,2,10,0.00
2012-12-29,29.7,23.5,17.9,27.3,19.1,14.3,91,83,73,30.32,29.96,10,5,18,0.00
2012-12-30,42.1,30.7,15.6,27.5,21.7,12.7,90,71,54,30.39,30.14,11,7,16,0.00
2012-12-31,37.9,30.3,20.1,31.9,24.6,15.9,95,80,55,30.19,30.08,13,6,18,0.08
2013-1-1,21.7,15.0,8.2,15.9,9.8,4.0,88,80,66,30.34,30.18,7,3,11,0.02